This is the latest recevied weather packets stored in our database for station/object WW4HG. If no packets are shown the sender has not sent any weather packets the latest 10 day(s).
| Time | Temp. | Humidity | Pressure | Rain* | Wind** | Luminosity | Snow |
|---|---|---|---|---|---|---|---|
| 1778074230 | 23.33° C | 53% | 1017.7 hPa | 0 mm | - | 114 W/m² | - |
| 1778073927 | 23.33° C | 50% | 1017.7 hPa | 0 mm | - | 143 W/m² | - |
| 1778073624 | 22.78° C | 52% | 1017.7 hPa | 0 mm | - | 320 W/m² | - |
| 1778073321 | 22.78° C | 52% | 1017.7 hPa | 0 mm | - | 351 W/m² | - |
| 1778073018 | 22.22° C | 53% | 1017.7 hPa | 0 mm | - | 337 W/m² | - |
| 1778072715 | 21.67° C | 53% | 1017.3 hPa | 0 mm | - | 309 W/m² | - |
| 1778072412 | 21.67° C | 55% | 1017.7 hPa | 0 mm | - | 303 W/m² | - |
| 1778072110 | 21.11° C | 55% | 1017.3 hPa | 0 mm | - | 269 W/m² | - |
| 1778071808 | 20.56° C | 55% | 1017.3 hPa | 0 mm | - | 271 W/m² | - |
| 1778071505 | 20.56° C | 56% | 1017.3 hPa | 0 mm | - | 281 W/m² | - |
| 1778071203 | 20° C | 57% | 1017.7 hPa | 0 mm | - | 270 W/m² | - |
| 1778070901 | 20° C | 60% | 1017.7 hPa | 0 mm | - | 257 W/m² | - |
| 1778070598 | 19.44° C | 59% | 1017.3 hPa | 0 mm | - | 237 W/m² | - |
| 1778070295 | 18.89° C | 60% | 1017.3 hPa | 0 mm | - | 241 W/m² | - |
| 1778069993 | 18.89° C | 62% | 1017.3 hPa | 0 mm | - | 229 W/m² | - |
| 1778069690 | 18.33° C | 63% | 1017.3 hPa | 0 mm | - | 222 W/m² | - |
| 1778069387 | 18.33° C | 64% | 1017.3 hPa | 0 mm | - | 205 W/m² | - |
| 1778069084 | 17.78° C | 66% | 1017 hPa | 0 mm | - | 204 W/m² | - |
| 1778068782 | 17.22° C | 69% | 1017.3 hPa | 0 mm | - | 193 W/m² | - |
| 1778068480 | 16.67° C | 73% | 1017.7 hPa | 0 mm | - | 184 W/m² | - |
| 1778068178 | 16.11° C | 76% | 1017.3 hPa | 0 mm | - | 175 W/m² | - |
| 1778067875 | 15.56° C | 79% | 1017.3 hPa | 0 mm | - | 159 W/m² | - |
| 1778067573 | 15.56° C | 80% | 1017.3 hPa | 0 mm | - | 147 W/m² | - |
| 1778067271 | 15° C | 81% | 1017.3 hPa | 0 mm | - | 148 W/m² | - |
| 1778066967 | 14.44° C | 83% | 1017.3 hPa | 0 mm | - | 136 W/m² | - |
* Rain latest hour (hover to see other rain measurements)
** Current wind speed in m/s (hover to see current wind gust speed)